Weather History for Taylorville, IL

Change the Weather History Date:

Wednesday, December 18, 2013

  Actual Average (KSPI) Record (KSPI)
Temperature  
Mean Temperature 22 °F 29 °F  
Max Temperature 37 °F 37 °F 64 °F (1962)
Min Temperature 8 °F 22 °F -11 °F (1983)
Degree Days  
Heating Degree Days 42 36  
Month to date heating degree days 593  
Since 1 July heating degree days 1661  
Cooling Degree Days 0 0  
Month to date cooling degree days 0  
Year to date cooling degree days 1122  
Moisture  
Dew Point 20 °F    
Average Humidity 74    
Maximum Humidity 87    
Minimum Humidity 55    
Precipitation  
Precipitation 0.22 in 0.07 in 2.55 in (1895)
Month to date precipitation 1.58  
Year to date precipitation 36.49  
Snow  
Snow 0.00 in 0.20 in 3.70 in (1973)
Month to date snowfall 2.8  
Since 1 July snowfall 3.4  
Snow Depth -    
Sea Level Pressure  
Sea Level Pressure 30.09 in    
Wind  
Wind Speed 10 mph (South)    
Max Wind Speed 24 mph    
Max Gust Speed 32 mph    
Visibility 10 miles    
Events      
T = Trace of Precipitation, MM = Missing Value Source: NWS Daily Summary

Daily Weather History Graph

Daily Weather History Graph

Search for Another Location

Airport:

Trip Planner

Search our weather history database for the weather conditions in past years. The results will help you decide how hot, cold, wet, or windy it might be!

Date:

Astronomy

Dec. 18, 2013 Rise Set
Actual Time 7:12 AM CST 4:35 PM CST
Civil Twilight 6:42 AM CST 5:05 PM CST
Nautical Twilight 6:08 AM CST 5:39 PM CST
Astronomical Twilight 5:35 AM CST 6:12 PM CST
Moon 6:07 PM CST (12/18) 7:52 AM CST (12/18)
Length of Visible Light 10h 23m
Length of Day
9h 22m
Full, 98% of the Moon is Illuminated
Dec 18
Full
Dec 25
Last Quarter
Jan 1
New
Jan 7
First Quarter
Jan 15
Full

Hourly Weather History & Observations

Time (CST) Temp. Windchill Dew Point Humidity Pressure Visibility Wind Dir Wind Speed Gust Speed Precip Events Conditions
12:15 AM 19.4 °F 12.8 °F 12.2 °F 74% 30.23 in 10.0 mi WSW 4.6 mph - N/A   Clear
12:35 AM 17.6 °F 9.3 °F 12.2 °F 79% 30.23 in 10.0 mi West 5.8 mph - N/A   Clear
12:55 AM 17.6 °F 10.7 °F 12.2 °F 79% 30.22 in 10.0 mi West 4.6 mph - N/A   Clear
1:15 AM 19.4 °F 11.5 °F 12.2 °F 74% 30.22 in 10.0 mi West 5.8 mph - N/A   Clear
1:35 AM 17.6 °F 7.3 °F 10.4 °F 73% 30.23 in 10.0 mi West 8.1 mph - N/A   Clear
1:55 AM 17.6 °F 9.3 °F 10.4 °F 73% 30.23 in 10.0 mi West 5.8 mph - N/A   Clear
2:15 AM 14.0 °F 3.9 °F 8.6 °F 79% 30.23 in 10.0 mi WSW 6.9 mph - N/A   Clear
2:35 AM 19.4 °F 10.4 °F 10.4 °F 68% 30.23 in 10.0 mi WSW 6.9 mph - N/A   Clear
2:55 AM 15.8 °F 7.2 °F 8.6 °F 73% 30.24 in 10.0 mi WSW 5.8 mph - N/A   Clear
3:15 AM 19.4 °F 12.8 °F 10.4 °F 68% 30.24 in 10.0 mi WSW 4.6 mph - N/A   Clear
3:35 AM 15.8 °F 10.2 °F 10.4 °F 79% 30.24 in 10.0 mi SW 3.5 mph - N/A   Clear
3:55 AM 12.2 °F 4.3 °F 8.6 °F 85% 30.24 in 10.0 mi WSW 4.6 mph - N/A   Clear
4:15 AM 12.2 °F 2.9 °F 8.6 °F 85% 30.24 in 10.0 mi SSW 5.8 mph - N/A   Clear
4:35 AM 15.8 °F 10.2 °F 10.4 °F 79% 30.24 in 10.0 mi SSW 3.5 mph - N/A   Clear
4:55 AM 15.8 °F 8.6 °F 10.4 °F 79% 30.24 in 10.0 mi South 4.6 mph - N/A   Clear
5:15 AM 15.8 °F 7.2 °F 10.4 °F 79% 30.24 in 10.0 mi South 5.8 mph - N/A   Clear
5:35 AM 14.0 °F 6.5 °F 10.4 °F 86% 30.23 in 10.0 mi South 4.6 mph - N/A   Clear
5:55 AM 14.0 °F 6.5 °F 10.4 °F 86% 30.23 in 10.0 mi South 4.6 mph - N/A   Clear
6:15 AM 12.2 °F 4.3 °F 8.6 °F 85% 30.23 in 10.0 mi SSE 4.6 mph - N/A   Clear
6:35 AM 12.2 °F 1.7 °F 8.6 °F 85% 30.22 in 10.0 mi SSE 6.9 mph - N/A   Clear
6:55 AM 8.6 °F -1.3 °F 5.0 °F 85% 30.23 in 10.0 mi South 5.8 mph - N/A   Clear
7:15 AM 14.0 °F 3.9 °F 10.4 °F 86% 30.22 in 10.0 mi South 6.9 mph - N/A   Clear
7:35 AM 15.8 °F 7.2 °F 12.2 °F 86% 30.21 in 10.0 mi South 5.8 mph - N/A   Clear
7:55 AM 17.6 °F 10.7 °F 12.2 °F 79% 30.21 in 10.0 mi South 4.6 mph - N/A   Clear
8:15 AM 15.8 °F 6.1 °F 10.4 °F 79% 30.22 in 10.0 mi South 6.9 mph - N/A   Clear
8:35 AM 15.8 °F 8.6 °F 10.4 °F 79% 30.22 in 10.0 mi South 4.6 mph - N/A   Clear
8:55 AM 21.2 °F 11.7 °F 14.0 °F 74% 30.21 in 10.0 mi South 8.1 mph - N/A   Clear
9:15 AM 23.0 °F 14.7 °F 14.0 °F 68% 30.22 in 10.0 mi South 6.9 mph - N/A   Clear
9:35 AM 26.6 °F 17.5 °F 15.8 °F 64% 30.22 in 10.0 mi South 9.2 mph - N/A   Clear
9:55 AM 28.4 °F 18.0 °F 17.6 °F 64% 30.20 in 10.0 mi South 12.7 mph - N/A   Clear
10:15 AM 30.2 °F 20.2 °F 17.6 °F 60% 30.20 in 10.0 mi South 12.7 mph - N/A   Clear
10:35 AM 32.0 °F 22.5 °F 17.6 °F 55% 30.19 in 10.0 mi South 12.7 mph - N/A   Clear
10:55 AM 32.0 °F 23.0 °F 19.4 °F 60% 30.18 in 10.0 mi SSE 11.5 mph - N/A   Clear
11:15 AM 32.0 °F 23.0 °F 19.4 °F 60% 30.16 in 10.0 mi SSE 11.5 mph - N/A   Clear
11:35 AM 32.0 °F 21.6 °F 19.4 °F 60% 30.14 in 10.0 mi SSE 15.0 mph - N/A   Clear
11:55 AM 33.8 °F 23.5 °F 19.4 °F 56% 30.12 in 10.0 mi South 16.1 mph - N/A   Clear
12:15 PM 33.8 °F 23.2 °F 21.2 °F 60% 30.10 in 10.0 mi South 17.3 mph 24.2 mph N/A   Clear
12:35 PM 35.6 °F 24.8 °F 21.2 °F 56% 30.08 in 10.0 mi South 19.6 mph 26.5 mph N/A   Clear
12:55 PM 35.6 °F 24.2 °F 23.0 °F 60% 30.05 in 10.0 mi South 21.9 mph - N/A   Clear
1:15 PM 35.6 °F 25.2 °F 23.0 °F 60% 30.04 in 10.0 mi South 18.4 mph 24.2 mph 0.01 in   Clear
1:35 PM 35.6 °F 24.2 °F 23.0 °F 60% 30.03 in 10.0 mi South 21.9 mph 27.6 mph 0.01 in   Clear
1:55 PM 35.6 °F 24.5 °F 23.0 °F 60% 30.02 in 10.0 mi South 20.7 mph 26.5 mph 0.01 in   Clear
2:15 PM 35.6 °F 24.2 °F 24.8 °F 65% 30.01 in 10.0 mi South 21.9 mph 27.6 mph N/A   Clear
2:35 PM 35.6 °F 24.0 °F 24.8 °F 65% 30.00 in 10.0 mi South 23.0 mph 32.2 mph N/A   Clear
2:55 PM 35.6 °F 24.2 °F 24.8 °F 65% 29.99 in 10.0 mi South 21.9 mph 32.2 mph 0.01 in   Clear
3:15 PM 35.6 °F 24.5 °F 24.8 °F 65% 29.98 in 10.0 mi South 20.7 mph 28.8 mph N/A   Clear
3:35 PM 35.6 °F 24.5 °F 24.8 °F 65% 29.97 in 10.0 mi South 20.7 mph 26.5 mph 0.01 in   Clear
3:55 PM 35.6 °F 23.7 °F 24.8 °F 65% 29.97 in 10.0 mi South 24.2 mph 29.9 mph 0.01 in   Clear
4:15 PM 35.6 °F 24.8 °F 26.6 °F 70% 29.97 in 10.0 mi South 19.6 mph 27.6 mph N/A   Clear
4:35 PM 35.6 °F 24.5 °F 26.6 °F 70% 29.96 in 10.0 mi South 20.7 mph 26.5 mph N/A   Clear
4:55 PM 35.6 °F 24.2 °F 26.6 °F 70% 29.95 in 10.0 mi South 21.9 mph 27.6 mph 0.01 in   Clear
5:15 PM 35.6 °F 24.0 °F 26.6 °F 70% 29.95 in 10.0 mi South 23.0 mph 26.5 mph N/A   Clear
5:35 PM 35.6 °F 24.2 °F 28.4 °F 75% 29.94 in 10.0 mi South 21.9 mph 31.1 mph N/A   Clear
5:55 PM 35.6 °F 24.8 °F 28.4 °F 75% 29.95 in 10.0 mi South 19.6 mph 27.6 mph 0.01 in   Clear
6:15 PM 35.6 °F 25.2 °F 28.4 °F 75% 29.95 in 10.0 mi South 18.4 mph 26.5 mph N/A   Clear
6:35 PM 35.6 °F 25.2 °F 28.4 °F 75% 29.94 in 10.0 mi South 18.4 mph 25.3 mph 0.01 in   Clear
6:55 PM 35.6 °F 24.8 °F 30.2 °F 81% 29.94 in 10.0 mi South 19.6 mph 26.5 mph 0.02 in   Clear
7:15 PM 35.6 °F 24.8 °F 30.2 °F 81% 29.94 in 10.0 mi South 19.6 mph - 0.01 in   Clear
7:35 PM 35.6 °F 23.7 °F 30.2 °F 81% 29.93 in 10.0 mi South 24.2 mph 28.8 mph 0.02 in   Clear
7:55 PM 37.4 °F 26.4 °F 32.0 °F 81% 29.93 in 10.0 mi South 23.0 mph 31.1 mph 0.04 in   Clear
8:15 PM 37.4 °F 26.1 °F 32.0 °F 81% 29.93 in 10.0 mi South 24.2 mph 31.1 mph 0.02 in   Clear
8:35 PM 37.4 °F 26.6 °F 32.0 °F 81% 29.93 in 10.0 mi South 21.9 mph 28.8 mph 0.04 in   Clear
8:55 PM 37.4 °F 26.4 °F 32.0 °F 81% 29.93 in 10.0 mi South 23.0 mph 29.9 mph 0.05 in   Clear
9:15 PM 37.4 °F 26.9 °F 32.0 °F 81% 29.92 in 10.0 mi South 20.7 mph 29.9 mph 0.01 in   Clear
9:35 PM 35.6 °F 24.8 °F 32.0 °F 87% 29.93 in 10.0 mi South 19.6 mph - 0.03 in   Clear
9:55 PM 35.6 °F 25.5 °F 32.0 °F 87% 29.93 in 10.0 mi South 17.3 mph - 0.04 in   Clear
10:15 PM 35.6 °F 26.6 °F 32.0 °F 87% 29.93 in 10.0 mi South 13.8 mph - N/A   Clear
10:35 PM 35.6 °F 27.1 °F 32.0 °F 87% 29.93 in 10.0 mi South 12.7 mph 18.4 mph 0.01 in   Clear
10:55 PM 35.6 °F 27.1 °F 32.0 °F 87% 29.93 in 10.0 mi South 12.7 mph - 0.02 in   Clear
11:15 PM 35.6 °F 27.1 °F 32.0 °F 87% 29.93 in 10.0 mi South 12.7 mph - N/A   Clear
11:35 PM 35.6 °F 27.1 °F 32.0 °F 87% 29.93 in 10.0 mi South 12.7 mph - N/A   Clear
11:55 PM 35.6 °F 27.1 °F 32.0 °F 87% 29.93 in 10.0 mi South 12.7 mph - N/A   Clear